COSMOS 1897 DEB, 44572

Orbit data source: Space-Track

COSMOS 1897 DEB, 44572 is space debris in GEO originally from a launch on Thu, 26 Nov 1987 UTC launched from the Tyuratam Missile And Space Complex (TTMTR). Debris objects in space refer to the collection of defunct objects orbiting the Earth. Examples of debris include non-operational satellites, rocket bodies, and fragments generated from explosions, collisions, or faulty payload assembly.

Not visible in the next 10 days
Identifier
44572, 1987-096G
Orbit
GEO
Last TLE update
15 hours ago
Origin
Manufacturer
NPO PM
Mission
Spacecraft
Bus & Motor
Unknown
Mass
Unknown
Launch date (UTC)
1987-11-26 (38 years ago)
Launch vehicle
Unknown
Launch site
Tyuratam Missile And Space Complex (TTMTR)
Object type
Payload
Rocket body
Debris
Shape & HBR
Unknown
Radar Cross Section
Large (>1 m²)

Expand to show TLE details & history

TLE from 15 hours ago
0 COSMOS 1897 DEB
1 44572U 87096G   25183.50403259  .00000099  00000-0  00000-0 0  9997
2 44572  11.3559 328.6182 0018246 273.6961 264.4323  1.00479052 67479
Epoch: 2025-07-02T12:05Z
TLE epoch observation values (Epoch: 2025-07-02T12:05:48.415Z)
Latitude
0.41613°
Longitude
44.3381°
Altitude
35,735.968 km
Speed
3.076 km/s
True Right ascension
09h 46m 17s
True Declination
0° 24' 57"
Sunlit
Object was in daylight at epoch
Visualization orbit readout
Latitude
8.20548°
Longitude
-87.8232°
Altitude
35,779.247 km
Speed
3.073 km/s
Apparent Right ascension
01h 09m 58s
Apparent Declination
2° 24' 50"
Sunlit
Object is in daylight
Visualization observer readout
Local Sidereal Time
14:58:57
Azimuth
37.217° NE
Elevation
-40.863°
Doppler factor
1
Orbital elements
Apogee altitude
35,806.431 km
Perigee altitude
35,652.772 km
Semi-major axis
42,107.738 km
Eccentricity
0.00182
Inclination
11.3559°
RAAN
328.6182°
Arg. of periapsis
273.6961°
True anomaly
Unknown
Mean anomaly
264.4323°
Eccentric anomaly
Unknown
Mean motion
0.25119 °/min
Orbital period
1,433.18 mins
BSTAR
0
Loading historical data...
44572 neighbors
Loading maneuver chart data...
Loading SW <> Apogee altitude chart data...
Loading historical data...
Loading historical data...
Loading historical data...
Loading historical data...
Loading historical data...
Loading historical data...
Loading historical data...

COSMOS 1897 DEB Visibility

Observer location: undefined°, undefined°

COSMOS 1897 DEB is likely not visible in the next few days
Span
Click to sort rows by Start time (UTC) header in descending order
Start Az.
Max El. time (UTC)
Max El. Az.
Max El.
End time (UTC)
End Az.
|